GEFSSE_500_meanwind_258.txt.gz
Wind_Speed
3 3 3 4 4 4 3 3 3 4 4 4 4 4 4 4 4 4 4 4 4 4 4 4 4 3 4 5 4 4 4 5 5 5 5 5 5 4 4 4 3 3 3
4 4 4 4 4 4 4 4 4 4 4 4 4 4 5 5 5 5 5 5 5 5 5 5 5 5 5 6 5 5 5 5 6 6 6 6 6 6 5 5 5 5 4
5 5 4 5 5 5 4 4 4 5 5 5 5 5 6 6 6 6 6 6 5 5 6 6 6 7 6 7 7 6 6 7 7 8 8 7 7 7 6 6 6 6 5
4 5 5 5 5 5 5 4 5 5 5 5 6 6 6 6 7 6 6 6 6 6 6 6 6 7 7 8 8 8 7 8 8 9 9 9 9 9 8 8 7 7 7
4 5 5 5 5 5 5 5 5 5 6 6 6 6 6 7 7 7 6 6 6 6 7 7 7 8 8 9 9 9 8 8 9 9 9 9 9 9 9 9 9 9 8
5 5 6 5 5 5 5 5 6 6 6 6 7 6 6 7 7 7 7 7 7 7 8 8 8 8 9 10 10 10 9 9 9 9 10 10 10 10 10 10 10 10 10
5 5 6 5 5 5 5 6 6 6 6 6 6 7 7 7 7 8 8 8 8 8 9 9 10 10 10 10 11 11 10 9 9 9 10 10 10 10 11 11 11 11 11
5 6 6 5 5 5 6 6 6 6 6 6 6 6 7 7 7 8 8 8 8 8 9 9 10 10 11 10 9 10 10 10 10 9 9 10 11 11 11 11 11 12 12
6 6 6 6 6 6 6 6 6 6 6 6 6 7 7 7 8 9 9 8 8 9 10 9 10 10 10 10 9 9 9 10 10 10 10 11 11 11 11 12 12 12 12
7 6 6 6 6 6 6 6 6 6 7 7 6 6 7 7 8 8 9 8 8 9 9 10 11 10 9 9 10 9 10 10 10 11 11 11 11 12 12 12 12 12 12
7 6 6 6 6 6 7 7 7 7 7 7 7 7 7 8 8 8 8 8 8 8 9 9 10 9 9 9 9 10 10 11 10 10 11 11 12 13 13 13 13 13 13
7 7 7 6 6 6 6 7 7 7 7 7 6 7 7 8 8 8 9 9 9 9 9 9 10 10 10 10 10 10 10 11 11 11 11 11 12 12 13 13 13 13 13
6 6 6 6 6 6 7 7 7 8 7 7 7 7 8 8 9 9 10 9 9 9 9 9 10 10 10 10 10 11 10 10 11 12 12 11 11 11 12 12 12 11 11
6 6 6 6 6 7 7 8 8 8 7 7 7 8 8 9 9 9 10 9 9 9 9 9 9 9 9 9 9 10 11 11 11 12 12 11 11 11 11 12 12 12 12
6 6 6 6 7 7 7 8 8 8 8 7 7 8 8 8 7 8 9 9 9 9 8 8 8 9 9 9 9 9 10 11 12 12 12 11 11 12 12 12 12 12 12
7 7 7 7 7 8 7 7 8 8 8 9 8 8 8 8 7 7 7 8 8 8 8 8 8 8 9 9 10 9 10 11 11 12 11 11 11 11 11 11 12 12 12
7 7 7 7 8 8 8 8 8 8 9 9 8 8 8 8 8 7 7 7 7 8 8 8 8 9 9 9 10 10 10 10 10 11 11 11 11 11 11 11 11 11 12
7 7 7 7 8 8 8 9 9 9 9 8 8 8 8 8 7 7 6 7 7 7 7 8 8 8 9 9 9 9 10 10 10 11 11 11 11 11 11 11 11 12 12
7 7 7 7 7 8 8 9 9 9 8 8 8 8 7 7 6 6 6 6 7 7 7 7 7 7 8 8 8 9 9 10 10 11 11 10 11 11 11 11 12 12 12
8 7 7 7 7 8 8 8 8 8 8 8 8 7 7 7 6 6 6 6 6 7 7 7 7 7 7 8 8 9 9 10 10 11 11 11 11 11 11 11 12 12 12
8 8 7 7 8 8 8 8 8 8 8 8 7 7 7 7 6 6 6 6 6 6 7 7 7 7 7 8 8 8 9 10 10 11 11 11 11 12 12 12 12 11 12
8 7 7 7 7 7 7 8 8 8 7 7 7 7 6 6 6 6 7 7 7 6 6 7 7 7 7 8 8 9 9 9 9 10 10 11 12 12 12 12 12 11 12
8 7 7 6 7 7 7 7 7 7 7 6 6 6 6 6 6 6 6 6 6 6 6 6 6 7 7 8 8 9 9 9 9 9 10 11 11 11 11 11 12 12 11
7 7 6 7 7 7 7 7 7 7 6 6 6 6 6 6 5 6 6 6 6 6 6 6 6 7 8 8 8 8 8 9 9 9 10 10 10 11 11 11 11 12 12
7 7 7 7 7 7 7 7 7 7 6 6 5 5 5 5 5 5 5 6 6 5 5 6 6 7 8 8 8 8 8 9 9 8 8 9 10 11 11 11 11 12 12
8 7 7 7 7 7 7 7 7 7 6 6 6 6 6 5 5 5 5 5 5 5 6 6 7 7 8 8 8 9 8 8 8 7 7 8 9 9 10 11 11 11 11

GEFSSE_500_meanwind_264.txt.gz
Wind_Speed
2 2 2 2 2 3 2 2 3 4 4 4 4 3 3 3 3 3 2 2 2 3 2 2 3 4 4 4 4 5 5 5 6 6 6 6 5 5 5 4 4 4 4
2 3 3 3 3 2 3 3 3 4 5 5 5 5 5 5 4 4 4 3 4 4 4 4 4 4 4 4 4 5 6 7 7 7 7 7 6 6 6 6 5 5 5
3 3 3 3 3 3 3 3 4 4 5 5 5 5 5 5 5 4 4 4 4 5 5 5 5 5 5 5 6 7 7 7 8 7 7 7 7 7 7 7 7 7 7
3 3 3 4 4 4 4 4 4 4 5 5 5 5 5 5 5 5 5 5 5 5 5 5 5 5 5 6 6 7 8 7 8 8 8 8 8 8 8 8 8 8 8
3 3 4 4 4 4 5 4 5 5 6 6 6 6 6 6 6 6 6 6 6 5 5 5 5 6 6 6 7 7 8 8 9 9 9 9 9 10 10 10 9 8 9
3 3 4 4 4 5 5 5 5 6 6 6 6 6 6 6 6 7 7 7 6 6 6 5 5 6 7 7 8 8 8 9 9 10 10 10 10 11 11 11 11 10 10
3 3 4 4 5 5 5 5 5 5 5 6 6 6 6 6 7 7 7 7 7 7 6 6 6 6 7 7 8 8 8 9 10 11 11 11 11 11 11 11 11 11 12
3 3 4 4 4 5 5 5 6 6 6 6 6 6 6 7 7 8 8 8 8 8 8 7 7 7 7 8 9 9 8 9 10 12 11 11 11 11 12 12 12 12 12
4 4 4 5 5 5 6 6 7 6 7 7 7 7 7 7 8 8 8 8 9 9 9 9 9 8 8 9 9 9 10 10 10 10 11 10 10 10 11 12 12 12 12
5 5 5 5 5 6 6 7 7 7 7 7 7 6 6 6 7 8 8 9 9 9 9 10 10 10 9 9 10 10 10 10 11 11 11 10 10 10 11 11 11 12 12
6 6 6 6 5 6 6 7 7 7 7 7 7 7 6 6 6 7 8 8 9 9 9 9 10 10 10 10 9 9 9 9 10 11 11 10 10 10 11 11 12 12 12
7 7 7 6 6 6 6 7 8 8 8 7 7 7 7 7 7 7 8 8 8 9 9 9 9 10 10 10 9 9 9 10 10 10 11 11 10 10 11 12 12 12 12
7 7 7 6 6 7 7 7 7 8 8 8 8 8 8 8 7 8 8 8 8 8 8 9 10 10 10 10 10 10 10 10 10 10 10 10 10 10 10 11 12 12 12
7 7 7 7 7 7 7 7 8 8 8 8 8 8 8 8 8 9 8 8 8 8 8 9 9 10 10 11 11 10 9 9 9 10 10 10 10 10 11 12 13 13 13
7 7 7 8 8 8 8 8 8 8 7 7 8 8 8 9 8 8 7 7 7 8 8 9 9 9 9 9 9 9 9 10 10 10 10 10 10 11 11 12 13 13 14
7 7 8 8 8 8 8 9 9 8 8 8 8 8 8 9 8 8 7 7 7 7 7 8 8 8 8 9 9 9 9 10 10 10 10 10 11 11 11 12 13 13 14
8 7 8 8 9 9 9 9 9 9 8 8 8 8 8 8 8 8 7 7 7 7 8 8 8 9 9 9 9 10 10 10 10 10 11 11 11 12 12 12 13 13 13
8 8 8 8 8 9 9 9 9 9 8 8 8 8 8 8 7 7 7 7 7 7 8 9 9 9 9 9 10 10 10 10 10 10 11 12 12 12 12 11 12 12 12
8 8 8 8 8 8 9 9 8 8 8 8 8 8 7 7 7 6 7 7 7 7 7 8 8 9 9 9 9 9 10 10 10 11 11 12 12 11 11 11 12 12 12
8 8 8 8 8 8 8 8 8 8 8 7 7 7 6 6 6 6 7 7 7 7 7 7 7 8 8 8 8 9 9 9 10 11 12 11 11 11 11 10 11 11 11
8 8 8 8 8 8 8 7 7 7 7 6 6 7 6 6 6 6 6 7 7 7 7 7 8 7 7 8 8 9 9 9 10 11 11 10 10 11 11 11 11 11 11
8 8 8 8 7 7 7 7 7 7 6 6 6 6 6 7 7 6 6 6 6 6 7 7 8 7 7 8 8 8 8 9 10 10 11 11 11 11 12 12 12 11 11
8 8 8 8 7 6 7 7 7 6 6 6 6 6 5 6 6 6 6 6 6 6 6 7 7 8 8 8 8 8 8 9 9 9 10 11 11 12 12 12 12 13 12
9 8 8 7 6 6 6 7 6 6 6 6 6 6 6 6 6 6 6 6 6 6 7 7 7 7 7 8 8 9 8 9 9 9 9 10 11 11 11 12 12 12 13
9 9 8 7 7 7 7 7 7 6 6 5 5 6 6 6 6 6 6 6 6 7 7 7 7 7 7 8 8 8 8 8 9 9 9 9 9 10 10 11 11 12 12
9 9 9 8 8 8 7 7 7 6 6 6 6 6 6 6 6 6 7 6 7 7 7 7 7 7 7 7 8 8 8 9 9 9 9 9 9 9 9 10 10 11 11

GEFSSE_500_meanwind_270.txt.gz
Wind_Speed
5 5 5 6 5 5 5 4 5 5 5 5 5 5 5 4 5 4 4 3 3 3 3 2 2 1 2 5 7 7 7 6 6 5 5 5 5 4 4 4 4 3 3
6 6 6 6 6 6 6 5 4 5 5 5 6 5 5 6 6 6 5 4 4 4 4 3 2 2 2 4 6 6 6 6 6 6 5 6 5 5 5 4 5 5 4
6 6 6 6 6 6 6 6 5 5 5 5 6 6 6 6 6 6 5 5 5 5 4 4 3 3 4 4 5 6 6 7 7 7 6 6 6 6 6 5 5 5 6
6 6 6 7 7 7 7 7 6 6 6 6 7 7 7 7 7 6 6 6 5 4 4 4 4 4 5 6 7 7 7 7 8 8 8 7 7 7 7 6 6 6 7
6 7 7 7 7 7 7 7 7 7 7 7 7 7 7 7 7 7 7 7 6 6 5 4 5 6 6 7 8 9 9 9 9 9 9 8 8 8 8 8 8 8 7
7 7 7 7 7 7 7 6 6 6 7 7 7 7 7 7 8 8 8 8 8 7 6 5 5 6 6 7 8 9 10 10 10 10 10 10 9 9 9 9 9 9 8
6 6 6 7 7 7 7 6 7 7 7 7 8 8 7 7 8 9 9 9 8 8 8 7 7 6 6 6 7 8 9 9 10 10 11 12 11 10 9 10 10 9 9
6 6 7 7 7 7 7 7 7 8 8 8 8 8 8 9 9 9 9 9 9 9 8 8 8 8 6 6 7 7 9 9 9 10 11 11 11 11 11 10 10 10 10
7 7 7 7 7 7 8 8 8 8 8 8 8 8 9 9 9 10 10 10 10 10 10 9 8 9 9 8 8 8 9 9 10 11 10 11 11 11 11 11 11 11 11
8 8 8 8 8 8 8 8 8 8 9 9 9 9 9 9 9 10 10 10 10 10 10 10 10 9 9 9 9 9 10 10 11 11 12 12 11 12 12 12 12 13 13
9 9 8 8 8 9 9 9 9 9 9 10 10 10 10 9 9 9 9 10 10 10 11 10 10 9 9 9 10 10 11 11 11 11 12 12 12 12 12 12 12 12 12
10 9 9 9 9 9 9 9 9 10 10 10 10 10 10 9 9 9 9 9 9 9 10 10 11 10 10 9 10 10 11 12 11 11 11 13 13 13 13 13 12 11 11
10 10 10 10 10 10 10 10 10 10 10 10 10 10 10 10 10 10 9 9 9 9 9 10 10 10 10 10 10 10 11 11 11 11 11 12 12 12 12 12 11 11 11
10 10 10 10 10 11 11 11 11 10 10 11 10 10 10 10 11 11 10 9 9 9 9 9 9 10 10 11 11 10 10 11 11 10 10 10 10 10 11 11 11 11 11
10 10 10 10 10 11 11 11 11 11 11 11 11 10 10 10 10 10 10 10 10 10 10 9 10 10 10 10 11 10 10 10 10 10 10 10 9 10 10 10 10 11 12
10 10 10 10 11 11 11 11 11 11 11 10 10 10 10 9 9 9 9 9 9 10 10 10 10 10 10 10 10 10 10 9 9 10 10 10 10 10 11 11 11 12 12
10 10 10 10 10 11 11 11 11 11 11 11 11 10 10 9 9 8 8 9 9 9 9 9 9 10 10 10 10 10 10 10 10 10 10 11 11 11 11 11 11 12 12
10 10 10 10 10 10 11 11 10 10 10 10 10 10 10 9 9 9 8 8 8 9 8 9 10 10 10 10 10 11 10 11 11 11 11 11 12 12 11 11 11 11 11
10 10 10 11 11 11 11 11 11 10 10 10 10 10 9 9 9 8 8 8 8 8 8 9 9 10 10 10 10 10 10 11 11 12 12 11 11 11 10 10 11 11 11
10 10 11 11 10 11 11 11 10 10 10 10 10 9 9 9 8 8 8 8 8 8 8 9 9 9 9 9 9 9 10 11 11 11 11 11 10 10 10 10 11 11 11
10 10 10 10 10 10 11 11 10 9 10 10 9 9 9 8 8 8 8 8 8 8 9 9 9 9 9 9 9 9 10 10 10 10 10 10 10 10 10 11 11 11 11
11 11 10 10 10 10 10 10 9 9 9 8 8 8 8 8 7 7 7 8 8 8 8 8 8 8 8 9 9 9 9 10 10 9 9 10 10 10 11 11 11 11 12
11 11 10 10 10 10 9 9 9 8 8 8 7 8 8 7 7 7 7 7 8 8 8 8 8 7 8 8 8 8 9 9 9 9 9 9 9 9 10 12 11 11 12
10 10 10 10 10 10 9 9 9 8 8 7 7 8 7 7 7 7 7 8 8 8 8 8 8 7 8 8 9 9 9 9 8 9 9 9 9 9 10 10 10 11 10
11 11 10 10 10 10 9 9 9 9 8 8 7 7 7 7 7 7 7 8 8 8 8 8 8 8 8 8 8 8 9 9 9 10 10 9 9 9 9 9 9 9 10
12 11 11 10 10 10 9 9 9 9 8 8 7 8 8 8 8 8 8 8 8 8 8 8 8 8 9 9 8 8 9 9 10 9 10 10 9 9 9 9 9 9 10

GEFSSE_500_meanwind_276.txt.gz
Wind_Speed
3 3 3 3 3 3 4 4 4 4 4 4 3 4 4 4 4 3 4 4 4 4 4 5 5 7 8 8 8 8 8 8 7 6 6 5 5 5 5 5 5 5 4
4 4 4 4 4 4 4 5 4 4 4 4 3 4 4 4 5 5 5 5 5 5 6 5 6 7 9 10 9 9 9 9 8 8 7 6 6 6 6 6 6 5 5
4 4 4 4 4 5 5 5 4 4 5 5 5 5 5 5 5 6 5 5 6 6 6 6 5 6 8 10 10 10 9 9 9 9 8 7 7 7 6 6 6 6 6
5 4 4 4 4 5 5 5 5 5 5 5 5 5 5 6 6 6 6 6 6 5 5 5 4 4 6 8 8 9 9 8 9 9 9 8 8 8 8 7 7 8 8
5 5 5 4 5 5 6 6 6 6 6 6 5 5 6 6 6 6 6 6 6 5 5 5 4 4 4 6 8 8 9 9 9 9 9 9 9 9 8 8 8 8 8
5 5 5 5 5 5 6 6 6 6 6 6 6 6 6 7 7 6 6 6 6 6 6 5 5 5 5 7 8 8 9 9 9 9 9 10 10 9 9 9 9 9 8
5 5 5 5 6 6 6 6 6 6 6 6 7 7 7 7 7 7 7 7 7 7 6 6 6 6 6 7 8 9 9 9 10 10 9 10 10 10 10 10 9 9 9
5 6 6 6 6 6 7 7 7 6 6 7 7 7 7 8 8 8 8 8 8 8 7 7 7 8 7 8 8 9 10 10 10 10 11 11 11 12 12 11 10 10 9
6 6 7 7 6 7 7 7 7 7 7 7 7 7 8 8 9 9 9 10 10 10 9 8 8 7 8 8 9 10 10 10 10 10 11 11 12 12 11 11 11 11 11
6 7 7 7 7 7 7 7 7 7 7 7 8 8 8 8 9 9 9 9 10 10 10 9 8 8 8 8 9 9 9 10 10 10 10 10 11 11 11 11 11 12 12
6 7 7 7 7 8 8 7 7 7 7 8 8 9 9 9 8 8 8 9 9 9 9 9 9 9 8 9 9 10 10 10 10 10 10 10 11 11 11 11 11 12 12
7 7 8 8 8 8 8 8 8 8 8 8 8 9 9 9 9 9 9 8 8 8 8 8 8 9 9 9 9 10 10 10 11 11 11 11 11 11 11 11 11 11 11
7 8 8 9 9 8 8 8 8 8 8 8 8 8 9 9 9 9 8 8 8 8 8 8 9 9 9 9 9 9 10 10 10 10 10 11 10 10 10 11 11 11 12
7 7 8 8 8 8 8 8 8 8 8 8 8 8 8 9 9 8 8 8 8 8 8 8 8 9 8 8 9 9 10 10 10 10 10 9 10 10 10 10 11 12 12
7 7 7 8 8 8 8 8 8 8 8 8 8 8 7 7 7 7 7 8 7 7 8 8 8 8 8 8 9 9 9 10 10 10 10 9 9 10 11 11 12 13 13
7 6 7 7 7 8 8 8 8 8 7 7 7 7 7 7 7 7 7 7 7 7 7 8 8 8 7 8 9 9 9 10 11 10 10 10 10 10 11 11 12 13 13
7 7 7 7 7 7 8 8 8 7 7 7 7 7 7 6 6 6 6 6 6 7 7 7 8 8 8 8 8 8 9 9 10 11 11 11 11 11 11 11 12 11 11
7 7 7 7 7 7 8 8 7 7 7 7 7 7 7 6 6 6 6 6 6 7 7 8 8 8 8 8 8 8 8 9 10 10 10 11 11 11 11 11 11 10 10
7 7 7 7 7 7 7 7 7 7 6 6 6 6 6 6 6 6 6 6 7 7 7 7 7 7 7 7 8 8 8 9 9 10 10 10 10 10 10 9 9 9 9
8 8 8 8 8 7 7 8 7 7 6 6 6 6 6 6 6 6 6 6 6 6 6 6 6 7 7 8 8 8 8 8 8 9 9 9 10 9 9 10 9 9 9
8 9 8 8 8 7 7 7 7 7 6 5 5 6 6 6 6 6 6 6 6 7 7 6 7 7 7 7 7 8 8 8 7 8 9 9 10 10 9 10 10 10 9
8 9 8 8 8 7 7 7 7 6 6 5 5 6 6 5 5 5 5 5 6 6 7 7 7 7 7 7 8 8 8 7 7 7 7 8 9 9 9 9 10 10 10
8 9 9 8 8 7 7 7 7 6 6 6 6 6 6 5 5 5 5 5 5 5 6 6 6 6 7 7 7 8 8 7 6 7 7 7 8 8 7 8 8 8 9
9 9 8 8 8 8 7 7 7 6 6 6 6 6 5 5 5 5 6 5 5 5 5 5 6 6 6 6 6 7 6 7 7 7 7 7 7 7 7 7 8 8 9
9 9 9 8 8 7 7 7 7 7 7 6 6 5 5 5 5 5 5 5 5 6 6 6 6 7 7 7 7 7 6 6 6 7 7 7 7 7 7 8 8 8 9
10 9 9 9 8 8 8 7 7 8 7 7 6 6 5 5 5 5 5 6 6 6 7 7 7 8 7 7 7 7 7 7 6 7 7 7 7 7 7 7 7 8 8